FW0155 Weather Reports


time (UTC)temp
F
wind
direction
speed
knots
gust
knots
rain 1hr
in
rain 24hr
in
rain mn
in
humidity
%
barometer
mb
20260506143205 51 256 0.0 1.7 0.00 0.25 0.25 84 1013.0
20260506142206 51 268 0.9 1.7 0.00 0.25 0.25 83 1013.0
20260506141207 51 269 0.0 1.7 0.00 0.25 0.25 83 1012.9
20260506140206 51 289 0.9 1.7 0.00 0.25 0.25 83 1013.0
20260506135204 51 270 0.0 1.7 0.01 0.25 0.25 84 1013.1
20260506133203 51 291 0.9 2.6 0.02 0.25 0.25 85 1013.0
20260506132202 51 286 0.0 2.6 0.02 0.25 0.25 86 1013.1
20260506131202 50 275 0.0 1.7 0.02 0.25 0.25 87 1013.1
20260506130202 50 286 0.0 1.7 0.02 0.25 0.25 86 1013.1
20260506125202 50 282 0.0 1.7 0.01 0.24 0.24 85 1013.0
20260506124646 51 315 0.0 2.6 0.00 0.23 0.23 82 1012.9
20260506123201 51 296 0.0 1.7 0.01 0.23 0.23 83 1012.9
20260506122200 51 94 0.0 2.6 0.02 0.23 0.23 84 1013.0
20260506121642 51 284 0.0 0.9 0.02 0.23 0.23 86 1013.1
20260506120200 51 284 0.0 1.7 0.05 0.23 0.23 86 1012.9
20260506115642 50 263 0.0 1.7 0.06 0.23 0.23 88 1013.0
20260506114637 50 238 0.0 0.9 0.06 0.22 0.23 88 1013.0
20260506113158 50 286 0.0 0.9 0.07 0.22 0.22 88 1013.1
20260506112157 50 286 0.0 2.6 0.08 0.21 0.21 88 1012.9
20260506111157 50 287 0.0 1.7 0.10 0.21 0.21 89 1013.0
20260506110157 49 285 0.0 1.7 0.08 0.18 0.19 88 1013.0
20260506105157 50 292 0.9 2.6 0.07 0.17 0.17 88 1012.9
20260506104158 50 307 0.9 2.6 0.06 0.16 0.16 89 1013.0
20260506103126 49 267 0.0 6.1 0.05 0.15 0.15 89 1012.8
20260506102606 49 303 1.7 5.2 0.03 0.13 0.13 88 1012.7
20260506101126 50 282 0.9 6.1 0.01 0.11 0.11 86 1012.8
20260506100126 50 355 3.5 7.0 0.00 0.10 0.10 84 1012.8
20260506095610 51 334 1.7 6.1 0.00 0.10 0.10 82 1012.4
20260506094124 51 306 2.6 7.0 0.00 0.10 0.10 82 1012.3
20260506093123 51 70 0.0 6.1 0.00 0.10 0.10 83 1012.4
20260506092603 50 39 1.7 3.5 0.01 0.10 0.10 84 1012.5
20260506091535 50 283 0.9 7.0 0.02 0.10 0.10 84 1012.5
20260506085051 50 264 0.9 6.1 0.02 0.10 0.10 85 1012.5
20260506084052 50 87 0.0 6.1 0.04 0.10 0.10 87 1012.3
20260506083051 49 287 0.9 7.0 0.05 0.10 0.10 88 1012.2
20260506082051 50 278 1.7 6.1 0.07 0.09 0.09 88 1012.2
20260506081050 49 0 1.7 8.7 0.06 0.08 0.08 90 1012.2
20260506072048 49 32 0.9 5.2 0.01 0.02 0.02 87 1012.0
20260506071049 48 346 1.7 5.2 0.02 0.02 0.02 89 1011.9
20260506062046 47 281 0.9 1.7 0.01 0.01 0.01 90 1011.8
20260506061046 46 281 0.0 2.6 0.00 0.00 0.01 90 1011.7
20260506051015 44 279 0.9 2.6 0.00 0.00 0.00 91 1011.8
20260506044012 43 153 0.0 0.9 0.00 0.00 0.00 91 1011.4
20260506043011 43 131 0.0 1.7 0.00 0.00 0.00 91 1011.5
20260506042011 42 235 0.0 1.7 0.00 0.00 0.00 91 1011.6
20260506041449 42 248 0.0 0.9 0.00 0.00 0.00 90 1011.7
20260506040010 43 223 0.9 1.7 0.00 0.00 0.00 90 1011.6
20260506035010 43 223 0.0 1.7 0.00 0.00 0.00 90 1011.7
20260506033939 43 240 0.0 1.7 0.00 0.00 0.00 90 1011.7
20260506032423 43 252 0.0 1.7 0.00 0.00 0.00 89 1011.9
20260506030938 43 252 0.0 1.7 0.00 0.00 0.00 89 1011.9
20260506024939 43 253 0.0 1.7 0.00 0.00 0.00 89 1012.1
20260506022937 44 269 0.0 0.9 0.00 0.00 0.00 88 1012.4
20260506021936 44 269 0.0 1.7 0.00 0.00 0.00 88 1012.4
20260506020936 44 320 0.0 0.9 0.00 0.00 0.00 88 1012.3
20260506015935 44 320 0.0 0.9 0.00 0.00 0.00 87 1012.2
20260506014935 44 320 0.0 0.9 0.00 0.00 0.00 87 1012.5
20260506013906 44 320 0.0 1.7 0.00 0.00 0.00 86 1012.3
20260506012904 45 320 0.0 0.9 0.00 0.00 0.00 86 1012.4
20260506011904 45 320 0.0 0.9 0.00 0.00 0.00 85 1012.4
20260506010905 45 324 0.0 1.7 0.00 0.00 0.00 85 1012.9
20260506005903 46 323 0.9 1.7 0.00 0.00 0.00 85 1012.7
20260506004903 46 31 0.0 2.6 0.00 0.00 0.00 84 1012.8
20260506004349 46 321 0.0 1.7 0.00 0.00 0.00 84 1012.6
20260506002901 46 32 0.9 2.6 0.00 0.00 0.00 84 1012.7
20260506001901 47 321 0.9 1.7 0.00 0.00 0.00 83 1012.7
20260506000833 47 23 0.9 1.7 0.00 0.00 0.00 83 1012.9
20260505235831 47 321 0.0 2.6 0.00 0.00 0.00 83 1013.0
20260505234830 48 323 0.0 1.7 0.00 0.00 0.00 84 1013.1
20260505233831 48 310 0.0 1.7 0.00 0.00 0.00 84 1013.1
20260505232831 48 317 0.0 1.7 0.00 0.00 0.00 83 1013.2
20260505231829 48 354 0.0 1.7 0.00 0.00 0.00 83 1013.2
20260505230834 48 343 0.0 1.7 0.00 0.00 0.00 83 1013.3
20260505225828 49 342 0.9 3.5 0.00 0.00 0.00 82 1013.4
20260505224828 49 322 0.9 3.5 0.00 0.00 0.00 82 1013.4
20260505223827 49 14 0.9 1.7 0.00 0.00 0.00 82 1013.4
20260505223307 49 317 0.0 2.6 0.00 0.00 0.00 83 1013.5
20260505221827 48 302 0.0 1.7 0.00 0.00 0.00 83 1013.5
20260505220826 48 286 0.0 1.7 0.00 0.00 0.00 84 1013.5
20260505215756 48 275 0.9 3.5 0.00 0.00 0.00 84 1013.4
20260505215236 48 302 0.9 3.5 0.00 0.00 0.00 84 1013.5
20260505214236 48 282 0.9 2.6 0.00 0.00 0.00 83 1013.4
20260505213237 49 15 0.0 2.6 0.00 0.00 0.00 83 1013.4
20260505211726 49 287 0.9 2.6 0.00 0.00 0.00 83 1013.4
20260505210724 49 291 0.9 3.5 0.00 0.00 0.00 83 1013.6
20260505205724 49 254 0.9 2.6 0.00 0.00 0.00 83 1013.4
20260505204724 49 282 0.0 3.5 0.00 0.00 0.00 83 1013.5
20260505203654 49 335 0.0 5.2 0.00 0.00 0.00 83 1013.5
20260505202703 49 347 0.9 1.7 0.00 0.00 0.00 82 1013.5
20260505201651 49 284 0.0 2.6 0.00 0.00 0.00 82 1013.4
20260505200651 49 317 0.0 3.5 0.00 0.00 0.00 81 1013.5
20260505195651 50 22 0.9 2.6 0.00 0.00 0.00 80 1013.3
20260505194651 50 306 0.9 2.6 0.00 0.00 0.00 79 1013.3
20260505194130 50 292 0.9 1.7 0.00 0.00 0.00 77 1013.2
20260505192649 51 250 0.9 5.2 0.00 0.00 0.00 76 1013.1
20260505191650 51 279 0.9 3.5 0.00 0.00 0.00 75 1012.9
20260505190648 51 272 0.0 3.5 0.00 0.00 0.00 75 1012.8
20260505185649 52 272 0.9 3.5 0.00 0.00 0.00 74 1012.9
20260505184648 52 10 0.9 5.2 0.00 0.00 0.00 73 1013.0
20260505183649 53 261 0.9 6.1 0.00 0.00 0.00 72 1012.9
20260505182648 53 38 0.9 3.5 0.00 0.00 0.00 70 1012.9
20260505181647 54 278 0.0 3.5 0.00 0.00 0.00 69 1012.8
20260505180647 54 221 1.7 3.5 0.00 0.00 0.00 69 1013.0
20260505180128 54 299 0.9 3.5 0.00 0.00 0.00 68 1012.7
20260505175120 55 291 0.9 5.2 0.00 0.00 0.00 68 1012.5
20260505173615 55 260 0.0 3.5 0.00 0.00 0.00 67 1012.5
20260505172615 55 277 0.0 3.5 0.00 0.00 0.00 67 1012.6
20260505171614 55 281 0.0 7.0 0.00 0.00 0.00 66 1012.6
20260505170615 55 353 0.9 2.6 0.00 0.00 0.00 66 1012.7
20260505165614 56 268 0.9 2.6 0.00 0.00 0.00 67 1012.7
20260505164613 55 275 0.9 5.2 0.00 0.00 0.00 67 1012.6
20260505163613 57 308 1.7 3.5 0.00 0.00 0.00 65 1012.6
20260505163058 56 5 0.9 3.5 0.00 0.00 0.00 66 1012.6
20260505161542 57 291 0.9 3.5 0.00 0.00 0.00 65 1012.6
20260505161022 57 319 1.7 5.2 0.00 0.00 0.00 64 1012.5
20260505152541 58 265 0.9 3.5 0.00 0.00 0.00 60 1012.5
20260505151541 58 285 0.0 5.2 0.00 0.00 0.00 61 1012.5
20260505151031 58 293 0.9 3.5 0.00 0.00 0.00 62 1012.5